Showing default

COSMOS 2328, 23790

Orbit data source: Space-Track

COSMOS 2328, 23790 is a payload satellite owned by VKS (CIS) in LEO that was launched on Mon, 19 Feb 1996 UTC via a TSIKLON-3 launch vehicle from the Plesetsk Missile And Space Complex (PKMTR). Payload-class satellites include a variety of spacecraft equipped with specific instruments for various scientific and technological missions. These include communications satellites like Starlink; space stations such as the ISS; scientific satellites like the Hubble; Earth observation satellites from companies like Planet Labs, Umbra, and HawkEye 360; GPS; miniature CubeSats for education and research; and military/defense satellites.

Loading next visibility...
Identifier
23790, 1996-009D
Orbit
LEO
Country
Flag of CISCIS
Related business
Manufacturer
NPO PM
Mission
Non-operational Defense Communications
Bus & Motor
STRELA-3, Unknown motor
Mass
225 kg wet, 225 kg dry
Launch date (UTC)
1996-02-19 (30 years ago)
Launch vehicle
TSIKLON-3
Launch site
Plesetsk Missile And Space Complex (PKMTR)
Object type
Payload
Rocket body
Debris
Shape & HBR
Cyl + 1 Ant, 3.5 m
Radar Cross Section
1.583 m², Large (>1 m²)

Expand to show TLE details & history
Last TLE update: 10 hours ago

TLE from 10 hours ago
0 COSMOS 2328
1 23790U 96009D   26194.81598339  .00000008  00000-0 -13042-4 0  9996
2 23790  82.5799 302.5755 0007449   6.1981 353.9202 12.62603791400835
Epoch: 2026-07-13T19:35Z
TLE epoch observation values (Epoch: 2026-07-13T19:35:00.964Z)
Latitude
0.00005°
Longitude
77.12642°
Altitude
1,409.174 km
Speed
7.158 km/s
True Right ascension
20h 10m 18s
True Declination
0° 00' 00"
Sunlit
Object was in full shadow at epoch
Visualization orbit readout
Latitude
Unknown
Longitude
Unknown
Altitude
Unknown
Speed
Unknown
Apparent Right ascension
Unknown
Apparent Declination
Unknown
Sunlit
N/A
Visualization observer readout
Local Sidereal Time
17:44:35
Azimuth
Unknown
Elevation
Unknown
Doppler factor
Unknown
Orbital elements
Apogee altitude
1,415.337 km
Perigee altitude
1,403.735 km
Semi-major axis
7,787.673 km
Eccentricity
0.00074
Inclination
82.5799°
RAAN
302.5755°
Arg. of periapsis
6.1981°
True anomaly
353.91115°
Mean anomaly
353.9202°
Eccentric anomaly
353.91568°
Mean motion
3.15814 °/min
Orbital period
113.99 mins
BSTAR
-0.000013042
Loading maneuver chart data...
Computing Atmospheric mass density...
Loading historical data...
Loading historical data...
Loading historical data...
Loading historical data...
Loading historical data...
Loading historical data...
Loading historical data...

Documentation

Showing up to 5 results
|